星链-5376 (STARLINK-5376 )

导读

STARLINK-5376是美国太空探索技术公司发射的星链系列卫星,于2023年3月29日发射入轨,属于星链互联网星座组网卫星。它为全球提供高速低延迟互联网服务,尤其覆盖偏远地区。该卫星配备了可展开太阳能电池板与自主离轨系统,降低太空垃圾风险,推进全球网络普及,同时推动低轨卫星通信技术发展。

Basic Information
目录编号:
56142
目录名称:
STARLINK-5376
国际标识:
2023-046BC
轨道中心:
EARTH
卫星名称:
星链-5376
卫星全名:
星链-5376 (STARLINK-5376 )
卫星状态:
在轨 (已飞行1255 天)
发射日期:
2023-03-29 UTC
国别 :
美国 (US)
星等 :
--
Orbit Information
数据来源 国际轨道数据 AOE轨道数据
星历时间 2026-09-03T17:48:56+0800
23小时前
查看轨道信息
2026-09-02T00:00:00+0800
2天前
查看轨道信息
半长轴 6861.191km 6861.213km
偏心率 0.000112 0.0003606
轨道倾角 43.001° 43.000°
近地点辐角 250.185° 307.672°
升交点赤经 223.011° 232.852°
平近点角 109.888° 179.690°
近地点 482.285km 480.601km
远地点 483.823km 485.551km
周期 94.267分钟 94.267分钟
每日圈数 15.275784 15.275713
Detailed Information
固有亮度:
5
最大亮度:
2.5
卫星平台:
Starlink v1.5
覆盖范围:
全球
运营商:
太空探索技术公司
运营商所在国:
美国
制造商(研发单位):
太空探索技术公司
制造商所在国:
美国
使用方式:
暂无
Satellite Introduction
星链(Starlink)计划是由太空探索技术公司(SpaceX)提出的一个巨型低轨卫星互联网星座项目,计划在2019年至2024年间在太空搭建由约1.2万颗卫星组成的“星链”网络,其中1584颗将部署在地球上空550千米处的近地轨道,并从2020年开始工作。该卫星仍在工作。
2D Orbit Map
3D Orbit Map
Orbit Altitude Analysis Chart
Orbit Inclination Analysis Chart
Orbit Comprehensive Analysis Chart
View Comprehensive Chart
Conjunction Data List
Event ID Objects TCA Miss Dist (km) Collision Risk Probability Collision Risk Index (CRI) Action
CDM_260906-052405-614206-365021
2026-09-06T
05:24:18+0000
0.720 km
远距离
5.984016E-5 中风险 0.71
CDM_260828-225402-636505-614225
SIMSAT 1 (26365)
2026-08-28T
22:54:01+0000
1.391 km
极远距离
8.128602E-6 低风险 0.53
CDM_260906-035005-614206-365021
2026-09-06T
03:50:09+0000
1.547 km
极远距离
4.605105E-6 低风险 0.48
CDM_260906-065805-614206-365021
2026-09-06T
06:58:27+0000
2.964 km
极远距离
1.07663E-6 低风险 0.36